Wind_Speed
58 55 51 48 44 48 50 48 47 46 44 46 54 61 65 71 77 74 82 84 84 77 76 68 67 70 72 73 73 76 76 74 72 74 74 75 76 76
42 41 42 43 45 47 50 51 49 45 39 36 40 41 46 50 58 70 79 73 80 84 85 81 72 68 76 77 74 73 77 79 76 75 76 76 75 78
44 44 44 45 45 47 48 48 47 46 41 36 39 39 43 40 41 48 62 72 81 69 67 74 81 77 81 78 73 73 74 78 82 79 77 78 78 77
45 47 49 50 50 51 51 50 50 48 43 39 38 41 41 44 45 47 48 61 54 71 84 74 77 77 76 77 79 74 79 77 80 85 83 79 80 81
50 52 53 53 51 51 52 53 53 52 48 44 39 41 43 45 43 47 56 57 56 51 56 63 61 65 62 57 65 72 76 80 77 83 85 85 82 82
53 52 51 50 50 50 51 51 51 51 50 48 44 40 43 44 45 47 50 60 59 61 58 56 57 54 57 57 61 67 64 66 74 79 83 85 88 87
50 48 47 46 47 47 47 46 47 46 46 48 47 44 42 43 46 47 50 53 56 57 60 59 59 61 56 55 53 53 57 60 65 69 75 79 83 86
47 44 44 44 43 42 40 40 40 41 42 44 45 44 43 43 42 43 44 48 52 58 56 60 60 57 56 63 62 60 57 60 64 67 69 73 76 80
45 45 44 44 43 42 39 34 32 33 35 39 41 41 42 42 42 39 39 42 42 45 50 55 54 53 54 57 63 68 69 66 64 64 70 73 74 78
47 47 44 40 39 38 35 34 34 33 31 34 38 36 37 40 40 38 36 36 37 39 43 44 50 49 52 53 55 60 67 70 70 68 67 69 77 77
41 39 36 32 29 30 31 32 32 28 27 28 31 31 31 33 36 36 35 35 36 39 43 45 48 50 52 53 54 54 56 59 65 71 73 73 72 73
32 32 29 24 21 21 21 20 18 21 22 24 26 26 25 27 30 31 32 32 33 34 40 43 42 45 47 50 53 55 56 57 58 59 63 71 76 77
30 29 26 23 18 14 12 11 12 16 16 17 19 20 21 21 21 20 20 20 21 23 31 30 31 37 38 41 43 46 50 54 56 59 61 63 65 68
28 26 25 23 19 14 9 5 3 8 12 15 16 16 15 14 13 14 15 16 17 21 24 27 31 33 33 32 35 42 44 47 48 51 56 60 62 65
26 25 24 20 16 13 8 2 3 8 13 16 16 14 11 10 9 7 5 3 2 5 9 13 17 26 33 34 35 34 33 36 41 46 50 51 52 57
23 22 21 19 19 18 12 6 6 11 14 14 12 11 11 13 12 10 6 4 4 6 10 13 15 15 22 26 32 34 33 33 35 35 38 44 51 53
20 18 18 18 18 18 16 9 7 10 14 16 16 16 16 14 11 8 5 3 4 7 11 15 18 15 11 16 18 25 28 27 28 29 33 35 41 47
19 16 15 14 14 14 12 9 8 11 11 13 14 14 12 9 7 6 4 2 3 6 10 13 17 18 9 11 15 15 17 20 22 25 26 30 35 41
15 16 14 12 11 11 10 7 5 3 6 9 10 9 8 7 4 3 2 0 2 5 8 11 14 17 15 7 12 14 15 17 18 19 22 27 30 33
14 13 13 12 10 9 8 6 2 1 4 6 8 7 6 6 4 2 1 2 3 4 6 8 10 13 13 11 7 13 17 18 17 16 16 18 21 25
15 14 13 11 10 8 7 6 6 5 5 8 10 9 7 7 7 6 5 5 6 5 5 6 8 9 11 11 10 8 6 15 20 19 16 15 17 20
16 17 17 15 12 9 7 7 8 8 8 9 11 12 12 11 11 10 9 8 8 8 8 8 8 8 9 10 11 12 10 7 11 12 18 20 19 17
18 18 18 20 19 16 13 10 8 8 10 12 13 14 14 14 14 13 12 12 12 11 11 11 11 11 11 11 11 11 11 11 10 11 13 12 14 21
Wind_Direction
287 286 284 284 284 286 286 280 280 276 270 264 256 253 251 247 244 244 246 242 243 245 241 243 248 248 244 239 236 233 234 234 234 233 233 232 232 232
292 288 285 284 282 280 279 280 279 276 271 259 250 247 245 243 243 239 240 236 242 244 248 253 253 251 241 238 237 234 233 233 232 233 234 233 233 233
292 291 289 285 281 279 278 278 277 274 269 258 252 253 246 242 243 242 236 233 237 235 233 241 243 242 242 242 242 243 238 234 232 231 232 233 234 233
294 293 290 287 284 280 277 274 273 272 270 263 251 246 246 248 241 231 232 230 234 237 242 247 247 250 252 251 252 251 246 236 233 232 231 232 233 233
297 296 292 288 283 277 274 272 270 268 265 262 257 247 244 244 243 240 233 234 231 232 236 239 242 246 247 244 245 244 243 239 235 233 231 232 231 232
299 296 293 289 286 281 276 271 267 265 263 259 255 251 246 246 244 242 243 242 241 242 244 246 247 250 252 254 249 239 237 237 237 234 232 232 232 231
300 297 295 291 286 283 283 279 271 265 260 257 253 249 246 243 244 245 239 240 246 247 245 245 248 251 246 241 238 235 242 243 239 237 235 235 235 235
304 301 295 290 287 284 284 284 280 269 261 255 252 247 245 242 243 243 244 243 241 243 243 244 249 249 248 246 241 240 236 236 238 238 237 235 235 235
307 302 296 290 285 281 278 280 281 273 261 253 249 246 242 240 240 245 242 244 244 241 242 243 245 247 245 242 242 243 243 241 238 235 235 232 233 234
310 304 299 293 288 281 276 273 274 271 257 249 247 243 241 237 238 241 244 244 244 244 244 243 245 246 246 246 243 240 240 241 240 239 238 234 235 236
317 313 308 304 296 284 277 272 268 258 250 242 240 239 238 233 235 239 244 247 248 247 248 245 245 246 246 246 245 243 240 238 236 235 238 239 236 235
337 338 334 326 311 297 287 275 253 245 243 234 227 229 231 229 232 238 245 250 252 252 252 250 249 247 246 246 245 244 242 241 239 236 235 235 234 236
342 341 341 341 342 332 311 283 254 244 234 215 207 209 213 222 231 236 235 240 244 245 254 257 254 252 249 248 247 246 245 243 241 241 239 237 236 237
343 344 344 343 341 341 341 335 230 200 187 180 179 184 193 202 216 233 246 251 254 256 263 264 261 256 249 243 244 244 244 244 243 241 241 240 238 238
352 357 359 4 11 15 19 352 166 152 149 153 155 164 184 210 223 210 189 188 244 298 305 305 283 265 258 248 240 240 238 239 241 242 242 240 239 239
358 2 7 18 28 32 41 61 108 132 138 145 154 157 155 152 143 131 124 109 67 20 5 354 338 304 266 251 242 240 241 243 243 243 242 241 240 240
358 3 8 16 24 32 41 61 110 131 135 131 132 137 140 138 135 132 119 86 48 28 20 11 4 348 285 258 252 244 244 246 250 249 246 243 239 238
355 357 2 9 17 24 40 58 96 120 128 140 146 147 148 147 144 136 126 80 33 20 18 17 14 9 338 264 256 251 248 249 251 255 255 246 243 237
341 350 350 347 352 4 19 46 93 143 149 158 163 166 167 163 155 149 141 106 12 24 22 16 15 14 11 311 263 258 259 255 256 260 257 246 245 240
315 326 338 342 336 335 341 355 3 189 223 206 196 199 202 198 197 208 261 284 317 355 11 15 15 12 9 1 333 265 257 260 261 261 260 251 248 247
291 295 304 316 326 321 310 306 299 270 237 236 226 225 231 237 235 243 264 279 290 308 331 346 355 360 5 4 342 341 299 266 260 260 259 256 252 251
296 278 279 284 292 302 305 293 280 271 259 246 242 245 249 244 247 252 263 272 279 288 299 307 319 328 335 344 350 354 348 300 294 281 264 260 258 256
302 287 272 268 271 273 278 280 278 271 260 254 252 252 252 247 245 255 264 270 273 277 282 289 295 299 305 311 319 327 331 342 336 305 289 285 272 261
Height
5480 5475 5470 5465 5462 5456 5454 5454 5452 5456 5458 5458 5462 5463 5467 5476 5484 5495 5498 5510 5514 5517 5525 5534 5541 5549 5557 5563 5571 5579 5588 5598 5605 5612 5622 5632 5640 5648
5463 5459 5455 5452 5449 5446 5442 5439 5439 5439 5443 5443 5445 5447 5449 5454 5459 5469 5476 5484 5489 5498 5507 5511 5517 5526 5533 5542 5550 5558 5567 5577 5587 5594 5603 5612 5621 5630
5448 5444 5442 5437 5435 5431 5428 5426 5424 5423 5427 5432 5432 5434 5436 5439 5445 5450 5455 5462 5469 5479 5487 5491 5497 5503 5512 5521 5531 5539 5548 5556 5566 5575 5583 5591 5600 5609
5433 5429 5425 5420 5417 5413 5411 5410 5409 5409 5411 5416 5419 5421 5422 5424 5429 5433 5438 5445 5450 5457 5463 5470 5476 5483 5491 5499 5508 5516 5528 5537 5544 5553 5562 5573 5579 5589
5418 5413 5407 5401 5398 5395 5393 5392 5392 5393 5395 5398 5403 5406 5409 5412 5415 5419 5423 5429 5435 5440 5445 5453 5459 5466 5473 5480 5488 5498 5504 5515 5525 5531 5540 5550 5560 5569
5403 5395 5389 5383 5379 5376 5373 5374 5375 5376 5378 5381 5386 5390 5393 5396 5400 5404 5409 5414 5420 5427 5432 5436 5444 5451 5458 5464 5472 5479 5484 5491 5501 5511 5520 5528 5538 5548
5386 5379 5373 5367 5362 5358 5357 5358 5358 5359 5361 5364 5369 5373 5378 5382 5385 5389 5395 5400 5404 5407 5414 5420 5427 5434 5440 5446 5452 5459 5466 5473 5481 5490 5500 5509 5518 5527
5371 5365 5358 5352 5347 5345 5343 5341 5341 5342 5345 5348 5352 5358 5363 5368 5372 5376 5381 5387 5392 5394 5401 5408 5413 5417 5422 5428 5435 5440 5447 5454 5462 5469 5477 5486 5495 5503
5355 5348 5343 5337 5332 5330 5330 5329 5328 5327 5329 5333 5338 5343 5349 5354 5359 5365 5369 5373 5378 5382 5387 5394 5396 5401 5403 5408 5414 5422 5429 5437 5444 5451 5457 5465 5473 5482
5340 5331 5326 5322 5317 5315 5315 5316 5316 5316 5316 5319 5324 5331 5336 5342 5348 5353 5357 5361 5366 5370 5373 5379 5380 5385 5387 5392 5397 5403 5410 5418 5426 5433 5439 5445 5454 5462
5328 5319 5313 5309 5305 5302 5302 5302 5303 5303 5305 5309 5314 5321 5326 5332 5338 5343 5348 5351 5355 5358 5360 5364 5367 5370 5373 5377 5381 5386 5391 5397 5403 5410 5419 5427 5434 5441
5323 5314 5306 5300 5296 5293 5291 5291 5292 5294 5297 5301 5306 5313 5319 5325 5329 5334 5338 5341 5344 5347 5345 5348 5353 5355 5359 5361 5364 5368 5373 5379 5384 5391 5397 5404 5411 5419
5322 5314 5306 5300 5294 5290 5287 5286 5287 5289 5292 5296 5302 5308 5314 5319 5324 5328 5330 5333 5335 5336 5334 5338 5341 5342 5346 5347 5349 5352 5356 5361 5367 5372 5379 5386 5392 5399
5321 5313 5306 5300 5294 5290 5288 5286 5285 5287 5290 5295 5301 5306 5311 5316 5319 5322 5324 5326 5327 5328 5327 5328 5329 5329 5331 5335 5335 5337 5341 5345 5350 5354 5360 5366 5374 5380
5320 5314 5307 5301 5295 5291 5289 5287 5287 5289 5292 5297 5302 5306 5310 5313 5316 5318 5320 5322 5323 5323 5322 5320 5318 5316 5316 5320 5323 5325 5329 5331 5335 5340 5345 5351 5357 5363
5322 5316 5310 5305 5300 5296 5293 5292 5292 5294 5296 5300 5303 5306 5309 5312 5315 5317 5319 5319 5320 5319 5317 5314 5311 5307 5305 5307 5311 5314 5317 5322 5325 5329 5333 5337 5342 5347
5323 5319 5314 5309 5305 5302 5299 5298 5298 5298 5300 5302 5305 5308 5311 5313 5315 5316 5317 5317 5316 5316 5314 5311 5307 5303 5300 5301 5304 5307 5311 5314 5317 5320 5323 5326 5329 5333
5324 5320 5317 5313 5310 5307 5305 5303 5303 5303 5304 5305 5307 5310 5312 5313 5314 5315 5315 5315 5314 5313 5311 5309 5305 5301 5298 5299 5300 5302 5304 5307 5310 5312 5314 5316 5317 5322
5324 5321 5318 5315 5313 5311 5309 5307 5306 5307 5306 5307 5309 5310 5311 5312 5313 5313 5313 5313 5313 5311 5309 5307 5304 5301 5298 5296 5296 5298 5299 5301 5303 5304 5306 5307 5308 5310
5323 5320 5318 5315 5313 5311 5310 5309 5308 5307 5308 5308 5309 5310 5311 5311 5311 5311 5311 5311 5311 5309 5308 5306 5304 5301 5299 5296 5294 5294 5295 5296 5297 5298 5299 5300 5301 5303
5319 5318 5316 5314 5312 5310 5309 5308 5307 5307 5307 5308 5308 5308 5309 5309 5309 5309 5309 5309 5308 5307 5306 5304 5303 5301 5299 5297 5294 5293 5292 5291 5291 5292 5293 5294 5295 5296
5313 5312 5312 5311 5310 5309 5307 5306 5305 5305 5304 5305 5305 5306 5306 5306 5307 5306 5306 5306 5306 5305 5304 5303 5301 5300 5299 5297 5295 5292 5290 5289 5287 5287 5287 5288 5290 5290
5308 5306 5305 5305 5305 5305 5304 5303 5302 5301 5301 5301 5301 5302 5302 5302 5302 5302 5302 5302 5302 5301 5300 5299 5299 5298 5296 5295 5294 5292 5290 5287 5285 5284 5283 5282 5282 5283